Date,TemperatureHighF,TemperatureAvgF,TemperatureLowF,DewpointHighF,DewpointAvgF,DewpointLowF,HumidityHigh,HumidityAvg,HumidityLow,PressureMaxIn,PressureMinIn,WindSpeedMaxMPH,WindSpeedAvgMPH,GustSpeedMaxMPH,PrecipitationSumIn
2013-4-1,57,49,46,-100,-100,-100,0,0,100,0.00,40.00,0,-999,0,0.00
2013-4-2,56,49,39,-100,-100,-100,0,0,100,0.00,40.00,0,-999,0,0.00
2013-4-3,63,50,36,-100,-100,-100,0,0,100,0.00,40.00,0,-999,0,0.00
2013-4-4,52,49,45,-100,-100,-100,0,0,100,0.00,40.00,0,-999,0,0.79
2013-4-5,50,48,45,-100,-100,-100,0,0,100,0.00,40.00,0,-999,0,2.52
2013-4-6,50,45,41,-100,-100,-100,0,0,100,0.00,40.00,0,-999,0,1.82
2013-4-7,47,41,36,-100,-100,-100,0,0,100,0.00,40.00,0,-999,0,0.93
2013-4-8,54,40,32,-100,-100,-100,0,0,100,0.00,40.00,0,-999,0,0.06
2013-4-9,55,45,37,-100,-100,-100,0,0,100,0.00,40.00,0,-999,0,0.00
2013-4-10,55,47,36,-100,-100,-100,0,0,100,0.00,40.00,0,-999,0,1.41
2013-4-11,57,46,33,-100,-100,-100,0,0,100,0.00,40.00,0,-999,0,0.05
2013-4-12,43,37,29,-100,-100,-100,0,0,100,0.00,40.00,0,-999,0,0.67
2013-4-13,44,38,31,-100,-100,-100,0,0,100,0.00,40.00,0,-999,0,1.21
2013-4-14,50,38,30,-100,-100,-100,0,0,100,0.00,40.00,0,-999,0,0.36
2013-4-15,54,40,26,-100,-100,-100,0,0,100,0.00,40.00,0,-999,0,0.17
2013-4-16,58,42,27,-100,-100,-100,0,0,100,0.00,40.00,0,-999,0,0.05
2013-4-17,58,42,30,-100,-100,-100,0,0,100,0.00,40.00,0,-999,0,0.01
2013-4-18,50,44,32,-100,-100,-100,0,0,100,0.00,40.00,0,-999,0,0.49
2013-4-19,58,50,46,-100,-100,-100,0,0,100,0.00,40.00,0,-999,0,1.07
2013-4-20,58,48,42,-100,-100,-100,0,0,100,0.00,40.00,0,-999,0,0.01
2013-4-21,58,46,35,-100,-100,-100,0,0,100,0.00,40.00,0,-999,0,0.27
2013-4-22,62,47,31,-100,-100,-100,0,0,100,0.00,40.00,0,-999,0,0.27
2013-4-23,67,47,27,-100,-100,-100,0,0,100,0.00,40.00,0,-999,0,0.00
2013-4-24,74,54,31,-100,-100,-100,0,0,100,0.00,40.00,0,-999,0,0.00
2013-4-25,73,53,34,-100,-100,-100,0,0,100,0.00,40.00,0,-999,0,0.00
2013-4-26,72,53,42,-100,-100,-100,0,0,100,0.00,40.00,0,-999,0,0.00
2013-4-27,52,48,36,-100,-100,-100,0,0,100,0.00,40.00,0,-999,0,0.22
2013-4-28,55,48,44,-100,-100,-100,0,0,100,0.00,40.00,0,-999,0,0.61
2013-4-29,52,46,35,-100,-100,-100,0,0,100,0.00,40.00,0,-999,0,0.27
2013-4-30,59,47,29,-100,-100,-100,0,0,100,0.00,40.00,0,-999,0,0.00